owner,sensor,date,latitude,longitude,vertical_datum,mass_concentration_of_oxygen_in_sea_water,qcFlag 
LUMCON,ioos:station:LUMCON:101:1,2019-06-01T00:00:00Z,29.2533,-90.6633,1.873,7.76,11111222 
LUMCON,ioos:station:LUMCON:101:1,2019-06-01T00:15:00Z,29.2533,-90.6633,1.863,7.65,11111222 
LUMCON,ioos:station:LUMCON:101:1,2019-06-01T00:30:00Z,29.2533,-90.6633,1.855,7.67,11111222 
LUMCON,ioos:station:LUMCON:101:1,2019-06-01T00:45:00Z,29.2533,-90.6633,1.847,7.66,11111222 
LUMCON,ioos:station:LUMCON:101:1,2019-06-01T01:00:00Z,29.2533,-90.6633,1.839,7.34,11111222 
LUMCON,ioos:station:LUMCON:101:1,2019-06-01T01:15:00Z,29.2533,-90.6633,1.832,7.25,11111222 
LUMCON,ioos:station:LUMCON:101:1,2019-06-01T01:30:00Z,29.2533,-90.6633,1.824,7.24,11111222 
LUMCON,ioos:station:LUMCON:101:1,2019-06-01T01:45:00Z,29.2533,-90.6633,1.816,7.09,11111222 
LUMCON,ioos:station:LUMCON:101:1,2019-06-01T02:00:00Z,29.2533,-90.6633,1.816,7.12,11111222 
LUMCON,ioos:station:LUMCON:101:1,2019-06-01T02:15:00Z,29.2533,-90.6633,1.824,7.12,11111222 
LUMCON,ioos:station:LUMCON:101:1,2019-06-01T02:30:00Z,29.2533,-90.6633,1.828,7.13,11111222 
LUMCON,ioos:station:LUMCON:101:1,2019-06-01T02:45:00Z,29.2533,-90.6633,1.822,6.99,11111222 
LUMCON,ioos:station:LUMCON:101:1,2019-06-01T03:00:00Z,29.2533,-90.6633,1.817,6.75,11111222 
LUMCON,ioos:station:LUMCON:101:1,2019-06-01T03:15:00Z,29.2533,-90.6633,1.817,6.81,11111222 
LUMCON,ioos:station:LUMCON:101:1,2019-06-01T03:30:00Z,29.2533,-90.6633,1.827,6.43,11111222 
LUMCON,ioos:station:LUMCON:101:1,2019-06-01T03:45:00Z,29.2533,-90.6633,1.842,6.24,11111222 
LUMCON,ioos:station:LUMCON:101:1,2019-06-01T04:00:00Z,29.2533,-90.6633,1.855,6.51,11111222 
LUMCON,ioos:station:LUMCON:101:1,2019-06-01T04:15:00Z,29.2533,-90.6633,1.859,6.57,11111222 
LUMCON,ioos:station:LUMCON:101:1,2019-06-01T04:30:00Z,29.2533,-90.6633,1.867,6.92,11111222 
LUMCON,ioos:station:LUMCON:101:1,2019-06-01T04:45:00Z,29.2533,-90.6633,1.874,6.93,11111222 
LUMCON,ioos:station:LUMCON:101:1,2019-06-01T05:00:00Z,29.2533,-90.6633,1.888,7.31,11111222 
LUMCON,ioos:station:LUMCON:101:1,2019-06-01T05:15:00Z,29.2533,-90.6633,1.9,7.35,11111222 
LUMCON,ioos:station:LUMCON:101:1,2019-06-01T05:30:00Z,29.2533,-90.6633,1.911,7.31,11111222 
LUMCON,ioos:station:LUMCON:101:1,2019-06-01T05:45:00Z,29.2533,-90.6633,1.924,7.39,11111222 
LUMCON,ioos:station:LUMCON:101:1,2019-06-01T06:00:00Z,29.2533,-90.6633,1.929,7.17,11111222 
LUMCON,ioos:station:LUMCON:101:1,2019-06-01T06:15:00Z,29.2533,-90.6633,1.939,7.41,11111222 
LUMCON,ioos:station:LUMCON:101:1,2019-06-01T06:30:00Z,29.2533,-90.6633,1.944,7.15,11111222 
LUMCON,ioos:station:LUMCON:101:1,2019-06-01T06:45:00Z,29.2533,-90.6633,1.949,7.3,11111222 
LUMCON,ioos:station:LUMCON:101:1,2019-06-01T07:00:00Z,29.2533,-90.6633,1.967,7.35,11111222 
LUMCON,ioos:station:LUMCON:101:1,2019-06-01T07:15:00Z,29.2533,-90.6633,1.982,7.5,11111222 
LUMCON,ioos:station:LUMCON:101:1,2019-06-01T07:30:00Z,29.2533,-90.6633,1.981,7.21,11111222 
LUMCON,ioos:station:LUMCON:101:1,2019-06-01T07:45:00Z,29.2533,-90.6633,1.987,7.38,11111222 
LUMCON,ioos:station:LUMCON:101:1,2019-06-01T08:00:00Z,29.2533,-90.6633,1.994,7.24,11111222 
LUMCON,ioos:station:LUMCON:101:1,2019-06-01T08:15:00Z,29.2533,-90.6633,1.999,7.27,11111222 
LUMCON,ioos:station:LUMCON:101:1,2019-06-01T08:30:00Z,29.2533,-90.6633,2.005,7.1,11111222 
LUMCON,ioos:station:LUMCON:101:1,2019-06-01T08:45:00Z,29.2533,-90.6633,2.015,7.27,11111222 
LUMCON,ioos:station:LUMCON:101:1,2019-06-01T09:00:00Z,29.2533,-90.6633,2.027,7.23,11111222 
LUMCON,ioos:station:LUMCON:101:1,2019-06-01T09:15:00Z,29.2533,-90.6633,2.035,7.21,11111222 
LUMCON,ioos:station:LUMCON:101:1,2019-06-01T09:30:00Z,29.2533,-90.6633,2.04,7.21,11111222 
LUMCON,ioos:station:LUMCON:101:1,2019-06-01T09:45:00Z,29.2533,-90.6633,2.039,6.75,11111222 
LUMCON,ioos:station:LUMCON:101:1,2019-06-01T10:00:00Z,29.2533,-90.6633,2.038,6.96,11111222 
LUMCON,ioos:station:LUMCON:101:1,2019-06-01T10:15:00Z,29.2533,-90.6633,2.04,6.76,11111222 
LUMCON,ioos:station:LUMCON:101:1,2019-06-01T10:30:00Z,29.2533,-90.6633,2.031,6.72,11111222 
LUMCON,ioos:station:LUMCON:101:1,2019-06-01T10:45:00Z,29.2533,-90.6633,2.034,6.35,11111222 
LUMCON,ioos:station:LUMCON:101:1,2019-06-01T11:00:00Z,29.2533,-90.6633,2.035,6.44,11111222 
LUMCON,ioos:station:LUMCON:101:1,2019-06-01T11:15:00Z,29.2533,-90.6633,2.035,6.18,11111222 
LUMCON,ioos:station:LUMCON:101:1,2019-06-01T11:30:00Z,29.2533,-90.6633,2.041,6.47,11111222 
LUMCON,ioos:station:LUMCON:101:1,2019-06-01T11:45:00Z,29.2533,-90.6633,2.052,6.37,11111222 
LUMCON,ioos:station:LUMCON:101:1,2019-06-01T12:00:00Z,29.2533,-90.6633,2.056,6.18,11111222 
LUMCON,ioos:station:LUMCON:101:1,2019-06-01T12:15:00Z,29.2533,-90.6633,2.056,6.16,11111222 
LUMCON,ioos:station:LUMCON:101:1,2019-06-01T12:30:00Z,29.2533,-90.6633,2.061,6.5,11111222 
LUMCON,ioos:station:LUMCON:101:1,2019-06-01T12:45:00Z,29.2533,-90.6633,2.062,6.41,11111222 
LUMCON,ioos:station:LUMCON:101:1,2019-06-01T13:00:00Z,29.2533,-90.6633,2.066,6.67,11111222 
LUMCON,ioos:station:LUMCON:101:1,2019-06-01T13:15:00Z,29.2533,-90.6633,2.075,6.7,11111222 
LUMCON,ioos:station:LUMCON:101:1,2019-06-01T13:30:00Z,29.2533,-90.6633,2.071,6.23,11111222 
LUMCON,ioos:station:LUMCON:101:1,2019-06-01T13:45:00Z,29.2533,-90.6633,2.076,6.46,11111222 
LUMCON,ioos:station:LUMCON:101:1,2019-06-01T14:00:00Z,29.2533,-90.6633,2.077,6.41,11111222 
LUMCON,ioos:station:LUMCON:101:1,2019-06-01T14:15:00Z,29.2533,-90.6633,2.08,6.0,11111222 
LUMCON,ioos:station:LUMCON:101:1,2019-06-01T14:30:00Z,29.2533,-90.6633,2.082,6.16,11111222 
LUMCON,ioos:station:LUMCON:101:1,2019-06-01T14:45:00Z,29.2533,-90.6633,2.084,5.82,11111222 
LUMCON,ioos:station:LUMCON:101:1,2019-06-01T15:00:00Z,29.2533,-90.6633,2.08,5.56,11111222 
LUMCON,ioos:station:LUMCON:101:1,2019-06-01T15:15:00Z,29.2533,-90.6633,2.079,5.83,11111222 
LUMCON,ioos:station:LUMCON:101:1,2019-06-01T15:30:00Z,29.2533,-90.6633,2.08,5.62,11111222 
LUMCON,ioos:station:LUMCON:101:1,2019-06-01T15:45:00Z,29.2533,-90.6633,2.078,5.9,11111222 
LUMCON,ioos:station:LUMCON:101:1,2019-06-01T16:00:00Z,29.2533,-90.6633,2.073,6.01,11111222 
LUMCON,ioos:station:LUMCON:101:1,2019-06-01T16:15:00Z,29.2533,-90.6633,2.071,6.03,11111222 
LUMCON,ioos:station:LUMCON:101:1,2019-06-01T16:30:00Z,29.2533,-90.6633,2.069,6.35,11111222 
LUMCON,ioos:station:LUMCON:101:1,2019-06-01T16:45:00Z,29.2533,-90.6633,2.067,6.9,11111222 
LUMCON,ioos:station:LUMCON:101:1,2019-06-01T17:00:00Z,29.2533,-90.6633,2.068,7.7,11111222 
LUMCON,ioos:station:LUMCON:101:1,2019-06-01T17:15:00Z,29.2533,-90.6633,2.066,7.83,11111222 
LUMCON,ioos:station:LUMCON:101:1,2019-06-01T17:30:00Z,29.2533,-90.6633,2.071,7.4,11111222 
LUMCON,ioos:station:LUMCON:101:1,2019-06-01T17:45:00Z,29.2533,-90.6633,2.067,6.91,11111222 
LUMCON,ioos:station:LUMCON:101:1,2019-06-01T18:00:00Z,29.2533,-90.6633,2.064,6.84,11111222 
LUMCON,ioos:station:LUMCON:101:1,2019-06-01T18:15:00Z,29.2533,-90.6633,2.049,7.28,11111222 
LUMCON,ioos:station:LUMCON:101:1,2019-06-01T18:30:00Z,29.2533,-90.6633,2.044,9.32,11111222 
LUMCON,ioos:station:LUMCON:101:1,2019-06-01T18:45:00Z,29.2533,-90.6633,2.038,9.57,11111222 
LUMCON,ioos:station:LUMCON:101:1,2019-06-01T19:00:00Z,29.2533,-90.6633,2.032,9.91,11111222 
LUMCON,ioos:station:LUMCON:101:1,2019-06-01T19:15:00Z,29.2533,-90.6633,2.02,9.94,11111222 
LUMCON,ioos:station:LUMCON:101:1,2019-06-01T19:30:00Z,29.2533,-90.6633,2.008,10.18,11133222 
LUMCON,ioos:station:LUMCON:101:1,2019-06-01T19:45:00Z,29.2533,-90.6633,1.99,10.15,11133222 
LUMCON,ioos:station:LUMCON:101:1,2019-06-01T20:00:00Z,29.2533,-90.6633,1.982,10.24,11133222 
LUMCON,ioos:station:LUMCON:101:1,2019-06-01T20:15:00Z,29.2533,-90.6633,1.967,10.21,11133222 
LUMCON,ioos:station:LUMCON:101:1,2019-06-01T20:30:00Z,29.2533,-90.6633,1.957,9.96,11111222 
LUMCON,ioos:station:LUMCON:101:1,2019-06-01T20:45:00Z,29.2533,-90.6633,1.947,9.86,11111222 
LUMCON,ioos:station:LUMCON:101:1,2019-06-01T21:00:00Z,29.2533,-90.6633,1.934,9.78,11111222 
LUMCON,ioos:station:LUMCON:101:1,2019-06-01T21:15:00Z,29.2533,-90.6633,1.928,9.55,11111222 
LUMCON,ioos:station:LUMCON:101:1,2019-06-01T21:30:00Z,29.2533,-90.6633,1.912,9.42,11111222 
LUMCON,ioos:station:LUMCON:101:1,2019-06-01T21:45:00Z,29.2533,-90.6633,1.901,9.18,11111222 
LUMCON,ioos:station:LUMCON:101:1,2019-06-01T22:00:00Z,29.2533,-90.6633,1.885,9.14,11111222 
LUMCON,ioos:station:LUMCON:101:1,2019-06-01T22:15:00Z,29.2533,-90.6633,1.875,9.23,11111222 
LUMCON,ioos:station:LUMCON:101:1,2019-06-01T22:30:00Z,29.2533,-90.6633,1.861,9.03,11111222 
LUMCON,ioos:station:LUMCON:101:1,2019-06-01T22:45:00Z,29.2533,-90.6633,1.844,8.98,11111222 
LUMCON,ioos:station:LUMCON:101:1,2019-06-01T23:00:00Z,29.2533,-90.6633,1.834,8.84,11111222 
LUMCON,ioos:station:LUMCON:101:1,2019-06-01T23:15:00Z,29.2533,-90.6633,1.819,8.75,11111222 
LUMCON,ioos:station:LUMCON:101:1,2019-06-01T23:30:00Z,29.2533,-90.6633,1.808,8.6,11111222 
LUMCON,ioos:station:LUMCON:101:1,2019-06-01T23:45:00Z,29.2533,-90.6633,1.799,8.53,11111222 
LUMCON,ioos:station:LUMCON:101:1,2019-06-02T00:00:00Z,29.2533,-90.6633,1.788,8.42,11111222 
LUMCON,ioos:station:LUMCON:101:1,2019-06-02T00:15:00Z,29.2533,-90.6633,1.78,8.21,11111222 
LUMCON,ioos:station:LUMCON:101:1,2019-06-02T00:30:00Z,29.2533,-90.6633,1.775,8.15,11111222 
LUMCON,ioos:station:LUMCON:101:1,2019-06-02T00:45:00Z,29.2533,-90.6633,1.769,8.04,11111222 
LUMCON,ioos:station:LUMCON:101:1,2019-06-02T01:00:00Z,29.2533,-90.6633,1.761,7.85,11111222 
LUMCON,ioos:station:LUMCON:101:1,2019-06-02T01:15:00Z,29.2533,-90.6633,1.756,7.82,11111222 
LUMCON,ioos:station:LUMCON:101:1,2019-06-02T01:30:00Z,29.2533,-90.6633,1.753,7.89,11111222 
LUMCON,ioos:station:LUMCON:101:1,2019-06-02T01:45:00Z,29.2533,-90.6633,1.747,7.82,11111222 
LUMCON,ioos:station:LUMCON:101:1,2019-06-02T02:00:00Z,29.2533,-90.6633,1.741,7.64,11111222 
LUMCON,ioos:station:LUMCON:101:1,2019-06-02T02:15:00Z,29.2533,-90.6633,1.737,7.71,11111222 
LUMCON,ioos:station:LUMCON:101:1,2019-06-02T02:30:00Z,29.2533,-90.6633,1.733,7.57,11111222 
LUMCON,ioos:station:LUMCON:101:1,2019-06-02T02:45:00Z,29.2533,-90.6633,1.733,7.42,11111222 
LUMCON,ioos:station:LUMCON:101:1,2019-06-02T03:00:00Z,29.2533,-90.6633,1.737,7.32,11111222 
LUMCON,ioos:station:LUMCON:101:1,2019-06-02T03:15:00Z,29.2533,-90.6633,1.737,7.2,11111222 
LUMCON,ioos:station:LUMCON:101:1,2019-06-02T03:30:00Z,29.2533,-90.6633,1.739,7.24,11111222 
LUMCON,ioos:station:LUMCON:101:1,2019-06-02T03:45:00Z,29.2533,-90.6633,1.747,6.95,11111222 
LUMCON,ioos:station:LUMCON:101:1,2019-06-02T04:00:00Z,29.2533,-90.6633,1.754,6.6,11111222 
LUMCON,ioos:station:LUMCON:101:1,2019-06-02T04:15:00Z,29.2533,-90.6633,1.761,6.88,11111222 
LUMCON,ioos:station:LUMCON:101:1,2019-06-02T04:30:00Z,29.2533,-90.6633,1.765,6.33,11111222 
LUMCON,ioos:station:LUMCON:101:1,2019-06-02T04:45:00Z,29.2533,-90.6633,1.771,6.96,11111222 
LUMCON,ioos:station:LUMCON:101:1,2019-06-02T05:00:00Z,29.2533,-90.6633,1.782,7.08,11111222 
LUMCON,ioos:station:LUMCON:101:1,2019-06-02T05:15:00Z,29.2533,-90.6633,1.798,7.06,11111222 
LUMCON,ioos:station:LUMCON:101:1,2019-06-02T05:30:00Z,29.2533,-90.6633,1.81,7.3,11111222 
LUMCON,ioos:station:LUMCON:101:1,2019-06-02T05:45:00Z,29.2533,-90.6633,1.823,7.44,11111222 
LUMCON,ioos:station:LUMCON:101:1,2019-06-02T06:00:00Z,29.2533,-90.6633,1.832,7.72,11111222 
LUMCON,ioos:station:LUMCON:101:1,2019-06-02T06:15:00Z,29.2533,-90.6633,1.841,7.53,11111222 
LUMCON,ioos:station:LUMCON:101:1,2019-06-02T06:30:00Z,29.2533,-90.6633,1.849,7.6,11111222 
LUMCON,ioos:station:LUMCON:101:1,2019-06-02T06:45:00Z,29.2533,-90.6633,1.866,7.65,11111222 
LUMCON,ioos:station:LUMCON:101:1,2019-06-02T07:00:00Z,29.2533,-90.6633,1.877,7.68,11111222 
LUMCON,ioos:station:LUMCON:101:1,2019-06-02T07:15:00Z,29.2533,-90.6633,1.896,7.89,11111222 
LUMCON,ioos:station:LUMCON:101:1,2019-06-02T07:30:00Z,29.2533,-90.6633,1.911,7.85,11111222 
LUMCON,ioos:station:LUMCON:101:1,2019-06-02T07:45:00Z,29.2533,-90.6633,1.92,7.88,11111222 
LUMCON,ioos:station:LUMCON:101:1,2019-06-02T08:00:00Z,29.2533,-90.6633,1.928,7.68,11111222 
LUMCON,ioos:station:LUMCON:101:1,2019-06-02T08:15:00Z,29.2533,-90.6633,1.933,7.59,11111222 
LUMCON,ioos:station:LUMCON:101:1,2019-06-02T08:30:00Z,29.2533,-90.6633,1.938,7.65,11111222 
LUMCON,ioos:station:LUMCON:101:1,2019-06-02T08:45:00Z,29.2533,-90.6633,1.949,7.57,11111222 
LUMCON,ioos:station:LUMCON:101:1,2019-06-02T09:00:00Z,29.2533,-90.6633,1.954,7.43,11111222 
LUMCON,ioos:station:LUMCON:101:1,2019-06-02T09:15:00Z,29.2533,-90.6633,1.963,7.41,11111222 
LUMCON,ioos:station:LUMCON:101:1,2019-06-02T09:30:00Z,29.2533,-90.6633,1.971,7.33,11111222 
LUMCON,ioos:station:LUMCON:101:1,2019-06-02T09:45:00Z,29.2533,-90.6633,1.977,7.2,11111222 
LUMCON,ioos:station:LUMCON:101:1,2019-06-02T10:00:00Z,29.2533,-90.6633,1.988,7.28,11111222 
LUMCON,ioos:station:LUMCON:101:1,2019-06-02T10:15:00Z,29.2533,-90.6633,1.995,7.18,11111222 
LUMCON,ioos:station:LUMCON:101:1,2019-06-02T10:30:00Z,29.2533,-90.6633,2.0,7.1,11111222 
LUMCON,ioos:station:LUMCON:101:1,2019-06-02T10:45:00Z,29.2533,-90.6633,2.004,6.93,11111222 
LUMCON,ioos:station:LUMCON:101:1,2019-06-02T11:00:00Z,29.2533,-90.6633,2.011,6.95,11111222 
LUMCON,ioos:station:LUMCON:101:1,2019-06-02T11:15:00Z,29.2533,-90.6633,2.013,6.44,11111222 
LUMCON,ioos:station:LUMCON:101:1,2019-06-02T11:30:00Z,29.2533,-90.6633,2.021,6.85,11111222 
LUMCON,ioos:station:LUMCON:101:1,2019-06-02T11:45:00Z,29.2533,-90.6633,2.025,6.73,11111222 
LUMCON,ioos:station:LUMCON:101:1,2019-06-02T12:00:00Z,29.2533,-90.6633,2.027,6.6,11111222 
LUMCON,ioos:station:LUMCON:101:1,2019-06-02T12:15:00Z,29.2533,-90.6633,2.034,6.76,11111222 
LUMCON,ioos:station:LUMCON:101:1,2019-06-02T12:30:00Z,29.2533,-90.6633,2.037,6.17,11111222 
LUMCON,ioos:station:LUMCON:101:1,2019-06-02T12:45:00Z,29.2533,-90.6633,2.04,6.6,11111222 
LUMCON,ioos:station:LUMCON:101:1,2019-06-02T13:00:00Z,29.2533,-90.6633,2.046,6.78,11111222 
LUMCON,ioos:station:LUMCON:101:1,2019-06-02T13:15:00Z,29.2533,-90.6633,2.048,6.38,11111222 
LUMCON,ioos:station:LUMCON:101:1,2019-06-02T13:30:00Z,29.2533,-90.6633,2.049,6.23,11111222 
LUMCON,ioos:station:LUMCON:101:1,2019-06-02T13:45:00Z,29.2533,-90.6633,2.054,6.65,11111222 
LUMCON,ioos:station:LUMCON:101:1,2019-06-02T14:00:00Z,29.2533,-90.6633,2.058,6.17,11111222 
LUMCON,ioos:station:LUMCON:101:1,2019-06-02T14:15:00Z,29.2533,-90.6633,2.063,6.28,11111222 
LUMCON,ioos:station:LUMCON:101:1,2019-06-02T14:30:00Z,29.2533,-90.6633,2.063,6.24,11111222 
LUMCON,ioos:station:LUMCON:101:1,2019-06-02T14:45:00Z,29.2533,-90.6633,2.065,5.98,11111222 
LUMCON,ioos:station:LUMCON:101:1,2019-06-02T15:00:00Z,29.2533,-90.6633,2.066,5.57,11111222 
LUMCON,ioos:station:LUMCON:101:1,2019-06-02T15:15:00Z,29.2533,-90.6633,2.068,5.87,11111222 
LUMCON,ioos:station:LUMCON:101:1,2019-06-02T15:30:00Z,29.2533,-90.6633,2.064,4.9,11111222 
LUMCON,ioos:station:LUMCON:101:1,2019-06-02T15:45:00Z,29.2533,-90.6633,2.07,5.78,11111222 
LUMCON,ioos:station:LUMCON:101:1,2019-06-02T16:00:00Z,29.2533,-90.6633,2.071,6.47,11111222 
LUMCON,ioos:station:LUMCON:101:1,2019-06-02T16:15:00Z,29.2533,-90.6633,2.073,5.14,11111222 
LUMCON,ioos:station:LUMCON:101:1,2019-06-02T16:30:00Z,29.2533,-90.6633,2.071,4.79,11111222 
LUMCON,ioos:station:LUMCON:101:1,2019-06-02T16:45:00Z,29.2533,-90.6633,2.066,5.48,11111222 
LUMCON,ioos:station:LUMCON:101:1,2019-06-02T17:00:00Z,29.2533,-90.6633,2.061,7.27,11111222 
LUMCON,ioos:station:LUMCON:101:1,2019-06-02T17:15:00Z,29.2533,-90.6633,2.052,7.98,11111222 
LUMCON,ioos:station:LUMCON:101:1,2019-06-02T17:30:00Z,29.2533,-90.6633,2.044,8.82,11111222 
LUMCON,ioos:station:LUMCON:101:1,2019-06-02T17:45:00Z,29.2533,-90.6633,2.04,9.21,11111222 
LUMCON,ioos:station:LUMCON:101:1,2019-06-02T18:00:00Z,29.2533,-90.6633,2.036,9.18,11111222 
LUMCON,ioos:station:LUMCON:101:1,2019-06-02T18:15:00Z,29.2533,-90.6633,2.03,9.61,11111222 
LUMCON,ioos:station:LUMCON:101:1,2019-06-02T18:30:00Z,29.2533,-90.6633,2.022,9.98,11111222 
LUMCON,ioos:station:LUMCON:101:1,2019-06-02T18:45:00Z,29.2533,-90.6633,2.013,10.43,11133222 
LUMCON,ioos:station:LUMCON:101:1,2019-06-02T19:00:00Z,29.2533,-90.6633,2.007,10.8,11133222 
LUMCON,ioos:station:LUMCON:101:1,2019-06-02T19:15:00Z,29.2533,-90.6633,1.998,11.17,11133222 
LUMCON,ioos:station:LUMCON:101:1,2019-06-02T19:30:00Z,29.2533,-90.6633,1.997,10.88,11133222 
LUMCON,ioos:station:LUMCON:101:1,2019-06-02T19:45:00Z,29.2533,-90.6633,1.99,10.93,11133222 
LUMCON,ioos:station:LUMCON:101:1,2019-06-02T20:00:00Z,29.2533,-90.6633,1.975,10.72,11133222 
LUMCON,ioos:station:LUMCON:101:1,2019-06-02T20:15:00Z,29.2533,-90.6633,1.961,10.48,11133222 
LUMCON,ioos:station:LUMCON:101:1,2019-06-02T20:30:00Z,29.2533,-90.6633,1.948,10.44,11133222 
LUMCON,ioos:station:LUMCON:101:1,2019-06-02T20:45:00Z,29.2533,-90.6633,1.931,10.27,11133222 
LUMCON,ioos:station:LUMCON:101:1,2019-06-02T21:00:00Z,29.2533,-90.6633,1.914,10.08,11133222 
LUMCON,ioos:station:LUMCON:101:1,2019-06-02T21:15:00Z,29.2533,-90.6633,1.899,9.92,11111222 
LUMCON,ioos:station:LUMCON:101:1,2019-06-02T21:30:00Z,29.2533,-90.6633,1.888,9.82,11111222 
LUMCON,ioos:station:LUMCON:101:1,2019-06-02T21:45:00Z,29.2533,-90.6633,1.875,9.53,11111222 
LUMCON,ioos:station:LUMCON:101:1,2019-06-02T22:00:00Z,29.2533,-90.6633,1.866,9.3,11111222 
LUMCON,ioos:station:LUMCON:101:1,2019-06-02T22:15:00Z,29.2533,-90.6633,1.848,9.48,11111222 
LUMCON,ioos:station:LUMCON:101:1,2019-06-02T22:30:00Z,29.2533,-90.6633,1.829,9.04,11111222 
LUMCON,ioos:station:LUMCON:101:1,2019-06-02T22:45:00Z,29.2533,-90.6633,1.814,9.16,11111222 
LUMCON,ioos:station:LUMCON:101:1,2019-06-02T23:00:00Z,29.2533,-90.6633,1.8,9.18,11111222 
LUMCON,ioos:station:LUMCON:101:1,2019-06-02T23:15:00Z,29.2533,-90.6633,1.788,9.06,11111222 
LUMCON,ioos:station:LUMCON:101:1,2019-06-02T23:30:00Z,29.2533,-90.6633,1.792,8.88,11111222 
LUMCON,ioos:station:LUMCON:101:1,2019-06-02T23:45:00Z,29.2533,-90.6633,1.811,8.86,11111222 
LUMCON,ioos:station:LUMCON:101:1,2019-06-03T00:00:00Z,29.2533,-90.6633,1.82,8.7,11111222 
LUMCON,ioos:station:LUMCON:101:1,2019-06-03T00:15:00Z,29.2533,-90.6633,1.803,8.68,11111222 
LUMCON,ioos:station:LUMCON:101:1,2019-06-03T00:30:00Z,29.2533,-90.6633,1.781,8.85,11111222 
LUMCON,ioos:station:LUMCON:101:1,2019-06-03T00:45:00Z,29.2533,-90.6633,1.76,8.68,11111222 
LUMCON,ioos:station:LUMCON:101:1,2019-06-03T01:00:00Z,29.2533,-90.6633,1.745,8.08,11111222 
LUMCON,ioos:station:LUMCON:101:1,2019-06-03T01:15:00Z,29.2533,-90.6633,1.731,8.15,11111222 
LUMCON,ioos:station:LUMCON:101:1,2019-06-03T01:30:00Z,29.2533,-90.6633,1.716,7.98,11111222 
LUMCON,ioos:station:LUMCON:101:1,2019-06-03T01:45:00Z,29.2533,-90.6633,1.7,7.92,11111222 
LUMCON,ioos:station:LUMCON:101:1,2019-06-03T02:00:00Z,29.2533,-90.6633,1.688,7.85,11111222 
LUMCON,ioos:station:LUMCON:101:1,2019-06-03T02:15:00Z,29.2533,-90.6633,1.685,7.76,11111222 
LUMCON,ioos:station:LUMCON:101:1,2019-06-03T02:30:00Z,29.2533,-90.6633,1.692,7.71,11111222 
LUMCON,ioos:station:LUMCON:101:1,2019-06-03T02:45:00Z,29.2533,-90.6633,1.695,7.58,11111222 
LUMCON,ioos:station:LUMCON:101:1,2019-06-03T03:00:00Z,29.2533,-90.6633,1.697,7.43,11111222 
LUMCON,ioos:station:LUMCON:101:1,2019-06-03T03:15:00Z,29.2533,-90.6633,1.697,7.41,11111222 
LUMCON,ioos:station:LUMCON:101:1,2019-06-03T03:30:00Z,29.2533,-90.6633,1.69,7.36,11111222 
LUMCON,ioos:station:LUMCON:101:1,2019-06-03T03:45:00Z,29.2533,-90.6633,1.683,7.28,11111222 
LUMCON,ioos:station:LUMCON:101:1,2019-06-03T04:00:00Z,29.2533,-90.6633,1.684,7.11,11111222 
LUMCON,ioos:station:LUMCON:101:1,2019-06-03T04:15:00Z,29.2533,-90.6633,1.689,7.08,11111222 
LUMCON,ioos:station:LUMCON:101:1,2019-06-03T04:30:00Z,29.2533,-90.6633,1.702,6.97,11111222 
LUMCON,ioos:station:LUMCON:101:1,2019-06-03T04:45:00Z,29.2533,-90.6633,1.724,6.73,11111222 
LUMCON,ioos:station:LUMCON:101:1,2019-06-03T05:00:00Z,29.2533,-90.6633,1.735,6.4,11111222 
LUMCON,ioos:station:LUMCON:101:1,2019-06-03T05:15:00Z,29.2533,-90.6633,1.747,6.69,11111222 
LUMCON,ioos:station:LUMCON:101:1,2019-06-03T05:30:00Z,29.2533,-90.6633,1.751,6.79,11111222 
LUMCON,ioos:station:LUMCON:101:1,2019-06-03T05:45:00Z,29.2533,-90.6633,1.76,7.06,11111222 
LUMCON,ioos:station:LUMCON:101:1,2019-06-03T06:00:00Z,29.2533,-90.6633,1.771,7.25,11111222 
LUMCON,ioos:station:LUMCON:101:1,2019-06-03T06:15:00Z,29.2533,-90.6633,1.785,7.37,11111222 
LUMCON,ioos:station:LUMCON:101:1,2019-06-03T06:30:00Z,29.2533,-90.6633,1.798,7.2,11111222 
LUMCON,ioos:station:LUMCON:101:1,2019-06-03T06:45:00Z,29.2533,-90.6633,1.811,7.32,11111222 
LUMCON,ioos:station:LUMCON:101:1,2019-06-03T07:00:00Z,29.2533,-90.6633,1.827,7.35,11111222 
LUMCON,ioos:station:LUMCON:101:1,2019-06-03T07:15:00Z,29.2533,-90.6633,1.841,7.63,11111222 
LUMCON,ioos:station:LUMCON:101:1,2019-06-03T07:30:00Z,29.2533,-90.6633,1.856,7.52,11111222 
LUMCON,ioos:station:LUMCON:101:1,2019-06-03T07:45:00Z,29.2533,-90.6633,1.874,7.56,11111222 
LUMCON,ioos:station:LUMCON:101:1,2019-06-03T08:00:00Z,29.2533,-90.6633,1.887,7.46,11111222 
LUMCON,ioos:station:LUMCON:101:1,2019-06-03T08:15:00Z,29.2533,-90.6633,1.9,7.68,11111222 
LUMCON,ioos:station:LUMCON:101:1,2019-06-03T08:30:00Z,29.2533,-90.6633,1.915,7.55,11111222 
LUMCON,ioos:station:LUMCON:101:1,2019-06-03T08:45:00Z,29.2533,-90.6633,1.927,7.44,11111222 
LUMCON,ioos:station:LUMCON:101:1,2019-06-03T09:00:00Z,29.2533,-90.6633,1.936,7.41,11111222 
LUMCON,ioos:station:LUMCON:101:1,2019-06-03T09:15:00Z,29.2533,-90.6633,1.947,7.31,11111222 
LUMCON,ioos:station:LUMCON:101:1,2019-06-03T09:30:00Z,29.2533,-90.6633,1.958,7.28,11111222 
LUMCON,ioos:station:LUMCON:101:1,2019-06-03T09:45:00Z,29.2533,-90.6633,1.964,7.19,11111222 
LUMCON,ioos:station:LUMCON:101:1,2019-06-03T10:00:00Z,29.2533,-90.6633,1.968,7.09,11111222 
LUMCON,ioos:station:LUMCON:101:1,2019-06-03T10:15:00Z,29.2533,-90.6633,1.98,7.05,11111222 
LUMCON,ioos:station:LUMCON:101:1,2019-06-03T10:30:00Z,29.2533,-90.6633,1.988,7.05,11111222 
LUMCON,ioos:station:LUMCON:101:1,2019-06-03T10:45:00Z,29.2533,-90.6633,1.999,7.08,11111222 
LUMCON,ioos:station:LUMCON:101:1,2019-06-03T11:00:00Z,29.2533,-90.6633,2.005,6.76,11111222 
LUMCON,ioos:station:LUMCON:101:1,2019-06-03T11:15:00Z,29.2533,-90.6633,2.011,7.0,11111222 
LUMCON,ioos:station:LUMCON:101:1,2019-06-03T11:30:00Z,29.2533,-90.6633,2.015,6.82,11111222 
LUMCON,ioos:station:LUMCON:101:1,2019-06-03T11:45:00Z,29.2533,-90.6633,2.023,6.94,11111222 
LUMCON,ioos:station:LUMCON:101:1,2019-06-03T12:00:00Z,29.2533,-90.6633,2.03,6.96,11111222 
LUMCON,ioos:station:LUMCON:101:1,2019-06-03T12:15:00Z,29.2533,-90.6633,2.039,6.91,11111222 
LUMCON,ioos:station:LUMCON:101:1,2019-06-03T12:30:00Z,29.2533,-90.6633,2.052,6.8,11111222 
LUMCON,ioos:station:LUMCON:101:1,2019-06-03T12:45:00Z,29.2533,-90.6633,2.056,6.91,11111222 
LUMCON,ioos:station:LUMCON:101:1,2019-06-03T13:00:00Z,29.2533,-90.6633,2.063,6.82,11111222 
LUMCON,ioos:station:LUMCON:101:1,2019-06-03T13:15:00Z,29.2533,-90.6633,2.067,6.95,11111222 
LUMCON,ioos:station:LUMCON:101:1,2019-06-03T13:30:00Z,29.2533,-90.6633,2.074,7.06,11111222 
LUMCON,ioos:station:LUMCON:101:1,2019-06-03T13:45:00Z,29.2533,-90.6633,2.079,6.93,11111222 
LUMCON,ioos:station:LUMCON:101:1,2019-06-03T14:00:00Z,29.2533,-90.6633,2.082,7.08,11111222 
LUMCON,ioos:station:LUMCON:101:1,2019-06-03T14:15:00Z,29.2533,-90.6633,2.084,7.21,11111222 
LUMCON,ioos:station:LUMCON:101:1,2019-06-03T14:30:00Z,29.2533,-90.6633,2.09,7.2,11111222 
LUMCON,ioos:station:LUMCON:101:1,2019-06-03T14:45:00Z,29.2533,-90.6633,2.095,7.11,11111222 
LUMCON,ioos:station:LUMCON:101:1,2019-06-03T15:00:00Z,29.2533,-90.6633,2.098,6.85,11111222 
LUMCON,ioos:station:LUMCON:101:1,2019-06-03T15:15:00Z,29.2533,-90.6633,2.098,6.77,11111222 
LUMCON,ioos:station:LUMCON:101:1,2019-06-03T15:30:00Z,29.2533,-90.6633,2.097,6.82,11111222 
LUMCON,ioos:station:LUMCON:101:1,2019-06-03T15:45:00Z,29.2533,-90.6633,2.102,6.75,11111222 
LUMCON,ioos:station:LUMCON:101:1,2019-06-03T16:00:00Z,29.2533,-90.6633,2.103,6.36,11111222 
LUMCON,ioos:station:LUMCON:101:1,2019-06-03T16:15:00Z,29.2533,-90.6633,2.107,6.51,11111222 
LUMCON,ioos:station:LUMCON:101:1,2019-06-03T16:30:00Z,29.2533,-90.6633,2.112,6.56,11111222 
LUMCON,ioos:station:LUMCON:101:1,2019-06-03T16:45:00Z,29.2533,-90.6633,2.118,6.87,11111222 